Temp
28 26 25 26 26 29 28 28 27 29 31 32 31 30 32 32 31 31 30 29 29 29 29 29 28 27 27 27 26 26 25 25 25 24 23 23 23 24 24 24 23 23 23 23
27 25 27 28 28 28 28 28 27 28 30 29 29 30 30 31 32 31 30 29 29 30 28 28 28 27 27 27 26 25 26 25 25 24 24 23 24 24 24 24 24 23 23 23
27 28 29 30 29 29 27 27 28 28 30 30 30 29 30 31 32 30 31 31 30 30 29 28 27 27 27 26 26 26 26 25 25 25 24 23 23 23 23 23 24 24 24 24
27 29 30 29 29 28 26 28 30 30 28 28 30 26 28 30 29 29 29 30 30 30 30 28 27 26 27 26 26 26 25 25 24 25 25 24 24 23 24 24 24 24 24 24
27 29 28 29 30 30 29 30 29 29 27 28 29 25 27 29 30 30 30 29 31 31 30 28 28 27 27 27 26 25 25 24 24 25 25 24 24 24 24 23 23 23 24 23
27 29 29 30 31 30 31 31 27 24 23 25 27 26 27 29 30 31 31 30 29 30 30 29 29 27 27 26 25 25 24 24 24 25 25 24 24 23 23 23 23 23 23 23
28 29 30 31 30 30 30 25 25 24 24 26 25 26 26 29 31 30 32 31 29 30 30 28 26 26 26 25 25 24 23 23 23 24 25 23 22 23 22 23 23 23 22 22
25 26 29 30 29 28 27 25 23 26 25 27 25 26 29 31 30 29 30 30 28 29 29 27 26 25 25 25 24 24 23 22 24 25 23 23 24 24 21 22 22 23 23 23
25 26 30 30 31 30 29 27 27 26 23 24 24 26 28 30 29 28 28 28 28 28 28 25 25 25 25 24 22 22 23 23 24 22 23 23 24 24 24 25 22 23 23 22
28 26 28 30 31 30 29 29 28 24 27 26 25 26 26 28 28 26 28 28 27 26 25 24 24 24 24 22 21 23 24 24 23 24 24 23 24 24 24 24 23 23 23 22
26 23 26 29 28 28 28 28 27 24 22 24 24 25 25 27 26 25 24 24 23 23 23 23 23 22 21 20 22 23 23 24 24 23 23 23 24 24 24 22 22 22 22 22
26 21 24 27 29 30 29 28 28 26 25 21 22 25 26 26 26 25 25 25 24 23 23 22 21 21 21 21 21 22 24 24 24 23 23 24 23 22 22 22 22 22 22 21
26 22 22 24 27 28 30 30 27 23 21 23 25 26 24 25 26 26 25 25 24 24 23 22 22 21 21 21 22 23 23 24 23 23 23 23 22 22 22 22 22 21 21 21
23 21 23 23 25 26 24 28 28 25 23 23 24 26 27 25 24 24 25 27 26 25 24 23 22 21 21 21 21 22 22 23 23 22 23 23 22 22 22 22 22 21 21 21
23 24 21 22 24 25 26 27 28 26 24 26 27 25 24 22 19 20 22 23 24 25 23 23 22 22 22 22 22 22 22 22 23 23 23 23 23 23 22 22 22 22 21 21
20 23 22 22 26 26 26 25 26 24 23 25 23 23 19 20 20 20 20 21 22 23 24 23 23 23 22 22 22 22 22 23 23 23 23 23 22 22 22 22 22 22 21 21
23 23 23 23 24 24 24 23 23 21 21 21 23 20 20 20 20 19 19 19 19 20 21 22 22 22 22 23 23 22 23 23 22 23 23 23 23 22 22 22 22 22 21 21
20 20 18 22 21 23 22 23 23 21 21 21 20 20 20 19 17 16 17 18 18 19 19 19 19 19 20 22 23 23 23 23 22 22 22 22 22 22 22 21 21 21 21 21
19 19 20 22 20 22 24 23 22 21 23 21 20 19 19 20 18 18 18 17 17 17 18 18 18 18 18 18 22 23 22 22 22 22 22 22 21 21 21 21 21 22 21 21
18 18 21 19 23 21 22 21 20 21 21 20 19 19 19 19 19 17 18 17 16 16 16 18 17 18 19 18 20 20 19 20 20 20 20 20 20 20 20 21 21 22 21 20
15 16 17 18 20 19 19 18 18 22 20 16 18 18 18 18 18 17 16 18 18 19 19 18 17 17 17 18 19 18 18 18 18 18 18 18 18 18 19 19 19 19 19 19
16 16 17 16 20 20 17 18 20 17 16 16 17 17 16 16 17 17 17 18 17 17 17 17 16 16 16 18 18 16 16 17 17 17 18 18 18 18 18 18 18 18 18 17
18 16 16 16 17 15 16 18 16 15 16 16 17 18 17 17 18 18 17 17 17 16 16 16 15 15 15 16 16 13 15 16 16 16 16 16 17 17 17 17 16 16 16 15
17 14 15 16 16 16 16 15 16 15 15 17 17 17 18 18 18 17 16 16 15 15 15 15 15 14 14 15 15 15 15 16 16 16 15 14 15 15 16 17 17 17 17 16
17 16 16 15 16 16 17 16 15 15 16 17 17 17 18 17 17 16 15 15 14 14 14 15 14 14 14 15 15 15 16 16 16 16 15 15 15 15 14 15 15 15 16 17
16 15 15 15 15 15 16 16 16 16 16 16 17 16 16 17 17 16 15 15 15 14 15 14 14 14 14 15 15 15 15 15 15 15 15 15 15 15 14 14 15 14 14 16
Height
732 750 762 754 750 747 754 759 764 747 730 739 741 740 720 710 712 710 713 713 712 710 707 721 725 727 734 738 742 746 750 755 760 764 768 772 773 776 778 780 783 784 786 788
741 752 737 733 740 747 752 760 762 746 729 744 741 740 720 712 704 703 705 706 706 703 709 713 720 723 727 730 736 741 745 750 755 760 763 767 770 773 776 778 780 781 783 784
740 733 724 731 739 749 753 761 756 757 737 735 740 747 730 708 701 702 701 697 697 696 702 707 712 713 719 725 729 734 738 743 750 756 762 767 770 772 773 773 775 777 779 780
735 720 727 733 739 741 766 736 738 743 756 770 735 782 742 716 714 706 701 694 690 690 694 700 705 711 712 714 724 730 735 741 748 753 759 762 764 767 768 770 772 773 775 778
736 725 731 736 729 729 740 725 737 739 752 754 749 775 746 721 717 704 690 689 680 674 680 687 692 697 700 711 717 726 733 739 744 749 755 758 760 763 766 768 770 770 772 774
725 707 713 715 711 717 713 724 741 755 765 782 751 761 749 733 715 699 684 677 674 671 672 678 680 693 700 707 715 722 729 736 741 748 753 757 758 762 763 765 765 768 768 771
725 719 703 702 720 716 723 753 782 790 792 783 748 753 735 706 694 691 680 672 668 665 670 680 685 692 698 703 711 718 726 734 741 748 751 755 760 761 763 765 763 764 766 767
749 752 715 701 715 729 736 752 790 792 795 769 754 760 721 686 677 675 669 663 666 667 670 677 680 686 692 699 708 718 725 732 739 744 750 754 756 758 758 761 763 763 764 766
749 743 701 700 698 708 726 748 731 759 771 781 762 734 699 683 678 674 667 664 665 665 667 673 679 684 691 699 707 714 722 731 738 745 748 751 754 754 755 757 760 761 763 765
721 741 711 701 693 696 712 711 743 760 770 779 766 749 740 703 692 682 673 666 665 668 672 675 680 688 694 702 709 716 722 729 739 743 747 749 753 754 754 756 757 760 762 762
715 733 727 702 714 719 718 725 730 742 764 775 779 756 706 696 690 688 688 677 677 679 682 688 693 696 699 705 710 716 724 730 737 741 746 750 753 754 756 759 760 761 762 762
717 741 745 720 692 688 698 712 716 748 757 769 765 746 691 689 683 680 685 685 680 683 688 693 700 704 708 711 714 718 722 728 734 742 746 749 751 753 755 758 761 762 762 763
718 744 759 739 711 699 702 694 706 727 748 752 758 740 696 687 680 681 681 686 685 684 688 694 701 708 714 718 716 718 721 729 736 741 744 747 750 751 752 754 758 759 760 762
718 747 751 764 741 720 726 703 698 713 744 745 744 721 701 697 690 685 676 666 673 680 684 682 691 694 698 723 724 718 722 730 736 738 739 743 746 747 751 752 754 757 757 759
727 741 747 735 724 720 708 703 695 709 720 728 716 719 714 713 719 714 697 692 673 672 679 685 689 689 694 710 719 719 724 727 732 735 736 740 742 744 747 749 750 752 753 754
735 743 740 740 713 714 713 704 700 705 713 712 720 723 718 712 709 710 707 704 700 693 684 683 691 691 700 701 709 717 722 725 729 733 732 735 741 742 743 745 746 747 748 748
736 739 740 748 725 720 731 722 719 721 718 718 729 731 721 718 718 717 717 714 717 718 705 689 694 698 697 696 707 717 717 722 728 728 731 732 737 738 740 742 743 744 746 748
739 744 755 755 743 752 730 718 717 722 721 714 724 727 721 716 723 727 725 716 722 728 723 714 697 698 705 708 706 714 718 722 724 724 727 730 734 736 737 739 739 740 740 739
728 739 748 747 759 747 726 725 730 732 723 716 721 727 722 713 719 721 716 710 710 740 737 729 708 701 707 709 703 710 717 721 720 721 725 728 731 734 734 734 735 734 734 734
732 735 737 752 747 758 734 728 725 727 741 725 727 734 729 725 735 737 718 706 722 740 728 738 711 710 710 714 708 714 717 718 720 721 727 732 733 733 732 733 734 733 732 732
757 753 755 752 749 746 736 734 731 741 746 734 729 727 725 729 727 728 728 724 724 740 743 716 718 714 720 722 719 714 716 722 725 726 733 736 735 733 733 733 734 733 731 731
763 761 760 759 750 754 738 731 736 742 734 730 727 724 727 725 727 728 729 725 725 730 726 726 731 735 732 724 723 728 729 729 729 730 734 735 734 733 733 733 730 729 727 726
757 757 760 756 753 748 742 738 740 740 734 726 724 721 725 725 723 729 730 738 735 736 731 733 738 739 736 733 734 738 739 736 731 731 731 731 730 729 729 728 725 723 719 714
747 751 754 752 747 743 740 740 737 734 729 726 724 723 726 728 727 727 732 738 737 728 730 738 737 737 740 739 742 745 739 737 730 728 727 728 729 729 727 723 719 716 712 707
744 750 747 751 744 743 740 739 737 732 728 719 721 726 729 731 729 729 732 734 736 740 740 734 735 738 739 741 742 742 741 736 731 727 728 727 727 725 722 719 715 712 709 706
742 745 751 749 737 740 740 736 736 735 732 726 729 729 730 728 728 727 732 735 734 733 737 741 742 742 743 744 743 747 742 741 737 729 724 725 722 721 721 718 713 710 706 703
Wind_Speed
6 5 7 11 10 4 5 4 7 9 10 2 12 12 20 10 12 16 13 15 17 21 20 23 27 33 33 36 35 38 37 39 37 34 30 28 31 27 24 23 21 20 22 20
5 9 8 8 5 6 5 5 9 8 14 6 10 14 11 6 19 15 17 17 20 20 12 17 25 30 34 37 36 37 40 39 40 37 35 28 30 26 23 19 17 20 18 19
16 10 8 5 6 6 6 6 11 10 10 6 7 7 7 6 6 8 12 17 19 21 17 17 19 32 32 33 38 40 42 41 41 38 32 23 17 18 16 22 21 17 17 18
13 10 9 5 8 7 8 9 12 11 2 9 5 7 6 6 8 7 11 17 20 20 15 16 19 22 33 37 35 40 39 39 40 38 33 30 23 21 21 20 18 16 15 15
8 9 9 13 20 6 13 4 8 9 6 1 3 2 7 4 9 10 10 13 20 24 21 21 22 30 38 33 35 36 35 35 38 38 33 31 28 21 16 10 11 13 14 16
9 8 8 12 10 9 8 3 6 5 2 3 6 7 5 5 8 6 6 10 10 15 19 21 26 26 28 28 30 33 34 32 35 34 31 28 25 19 12 10 8 12 17 17
5 6 4 6 3 2 4 6 5 5 3 8 7 3 8 4 7 12 15 13 8 12 16 14 14 15 24 28 31 32 30 26 30 28 25 20 12 6 6 13 10 10 14 19
4 8 6 3 8 9 6 9 6 5 6 10 1 6 7 8 11 9 13 13 6 8 10 12 15 15 25 28 28 28 28 25 27 26 17 13 10 8 8 8 14 11 13 15
4 8 5 3 6 9 6 5 7 4 2 2 4 8 10 7 12 8 12 10 11 10 10 12 13 17 23 25 26 30 31 28 26 18 18 15 14 13 15 14 14 13 12 12
6 2 3 5 2 6 7 6 1 1 2 4 5 5 6 11 10 10 4 9 4 5 8 10 11 13 18 21 24 30 32 30 23 20 19 19 16 12 18 11 10 11 10 10
2 5 8 3 6 8 0 3 2 6 4 5 4 7 7 6 6 6 7 9 10 11 11 9 9 12 17 21 27 30 29 26 23 21 19 21 11 12 13 13 11 11 9 9
3 4 3 8 10 8 7 9 6 5 6 3 3 7 3 5 3 10 11 8 13 14 13 12 10 13 14 17 24 28 28 24 22 20 19 16 13 14 14 13 11 11 8 9
4 3 4 10 8 7 3 5 6 6 3 6 5 8 4 5 7 7 16 10 10 12 13 12 12 9 9 5 17 26 25 23 22 20 19 15 14 16 16 14 12 11 8 8
5 3 4 4 9 6 7 6 8 8 4 3 6 8 2 5 6 5 2 19 18 14 13 15 15 15 20 8 17 22 22 23 22 22 18 17 18 18 16 14 14 12 10 10
3 2 4 8 14 9 10 13 9 7 6 5 4 5 5 4 8 9 10 15 8 12 11 12 13 12 16 26 20 19 22 24 23 22 21 19 18 17 18 17 15 12 12 12
3 3 2 6 11 3 9 17 8 8 3 3 6 4 6 7 12 13 15 18 17 10 7 9 12 14 14 18 20 21 24 25 24 25 23 18 16 17 18 20 19 17 17 17
3 3 8 13 9 6 4 10 7 3 6 5 2 2 4 13 14 14 17 22 22 21 9 7 6 1 7 18 19 22 26 23 24 21 18 16 17 19 19 22 20 20 19 17
6 6 5 6 7 1 3 2 8 6 6 12 7 1 4 13 8 6 12 18 21 23 16 11 5 12 8 10 19 21 19 21 20 17 16 15 17 18 18 21 24 23 23 24
5 5 3 3 4 6 4 2 4 4 2 1 7 5 5 7 2 6 7 15 20 20 18 22 13 20 22 13 9 11 14 16 15 16 17 17 19 21 22 24 26 29 27 29
5 4 3 3 4 6 4 6 9 6 4 3 3 2 6 3 3 4 6 15 12 5 21 23 10 22 26 18 14 11 10 12 12 11 11 12 15 18 20 22 26 27 26 28
5 3 3 2 2 4 5 10 6 2 4 7 3 4 4 3 2 4 3 6 15 18 19 12 21 23 21 18 20 23 18 10 5 2 4 7 9 10 11 14 20 25 26 29
2 1 2 0 2 4 7 3 1 2 4 4 3 3 4 2 7 6 5 6 8 6 17 19 13 13 18 22 21 19 18 14 11 9 9 11 13 15 17 19 21 19 22 30
2 3 2 5 3 1 2 2 2 4 2 5 5 3 5 4 6 4 9 4 7 11 13 16 14 15 21 22 19 15 15 14 13 13 15 15 16 19 23 26 28 27 28 26
2 3 2 4 3 2 3 1 4 2 6 7 10 8 3 1 6 8 6 5 5 14 16 12 14 15 15 20 19 16 19 18 19 20 21 16 16 19 19 20 21 20 24 19
2 4 3 1 2 4 1 2 2 3 3 15 14 12 4 1 6 7 6 6 7 10 11 18 17 16 15 14 16 15 16 18 22 21 19 20 21 22 23 21 21 18 17 14
4 5 3 4 6 3 3 6 3 4 2 8 12 9 5 5 6 6 5 8 11 13 16 15 12 11 10 10 12 11 12 11 13 15 19 21 23 25 24 22 19 14 13 12
Wind_Direction
202 176 198 214 197 230 207 233 237 268 275 325 282 281 284 221 208 207 213 198 207 213 207 196 193 193 196 202 199 202 201 205 204 204 198 200 209 221 229 236 236 245 242 240
235 223 212 225 188 214 236 248 267 294 267 164 277 279 279 211 215 206 205 203 215 223 186 191 191 188 193 196 199 200 204 204 203 201 206 207 213 221 230 234 248 244 240 241
221 225 215 177 246 228 227 217 260 245 311 214 267 286 277 277 217 199 214 217 220 217 199 187 184 190 190 193 196 200 202 204 201 203 207 206 212 219 224 234 248 246 243 250
229 231 213 194 240 181 255 209 248 265 53 274 128 276 296 281 303 196 226 214 219 225 198 185 192 188 188 197 195 201 202 202 201 205 206 208 212 217 232 242 250 250 243 243
238 199 197 216 230 163 246 197 213 251 251 117 215 149 259 333 304 289 288 203 220 220 194 187 188 193 192 187 190 195 200 201 203 206 209 213 220 227 243 246 261 246 246 228
251 241 199 216 219 192 241 321 43 51 81 306 244 181 239 210 225 278 274 274 217 203 194 189 194 181 182 180 181 189 197 198 205 205 210 218 226 233 238 229 248 255 245 243
277 217 242 184 209 106 132 57 316 329 347 239 248 198 236 220 221 227 255 264 240 194 184 176 156 166 168 171 179 186 185 186 200 202 212 219 228 216 283 279 257 275 248 243
198 296 207 191 178 196 186 163 170 242 268 281 33 241 260 244 267 255 239 240 184 172 172 169 170 167 169 172 173 177 173 175 189 199 201 188 204 220 233 294 291 271 265 261
153 271 299 165 212 156 216 161 199 150 45 89 260 288 314 306 290 309 250 171 183 173 173 159 158 164 165 168 166 168 172 183 186 183 170 183 201 217 215 223 281 254 253 247
226 270 243 291 347 210 172 177 155 98 274 251 272 276 247 298 306 327 286 181 149 110 109 129 141 142 149 149 153 167 180 169 164 170 181 192 200 235 205 230 249 244 237 241
340 98 295 234 170 246 268 143 52 103 145 197 236 270 218 256 289 75 14 68 85 82 82 82 97 113 127 134 149 163 162 159 167 177 183 186 201 197 205 249 233 228 224 226
312 124 267 264 268 223 188 212 165 184 246 200 193 263 345 273 92 110 97 65 78 84 82 86 91 101 113 139 156 156 161 165 178 177 181 194 198 203 204 213 224 218 214 212
303 14 354 343 2 10 277 211 159 115 58 195 150 262 347 1 114 166 126 119 114 117 122 125 114 103 103 164 159 167 172 180 177 182 180 188 202 198 198 197 205 200 199 207
59 65 135 254 259 278 278 252 183 146 123 162 226 280 54 270 184 221 126 147 151 157 162 150 138 144 124 209 211 178 178 179 178 180 180 191 198 195 198 192 192 197 198 199
91 275 213 257 260 267 312 312 207 118 176 131 269 244 354 31 355 335 7 343 137 152 165 160 151 151 167 188 200 187 184 186 186 188 184 193 199 196 196 195 194 195 199 196
321 305 31 301 283 1 31 20 8 62 83 101 12 22 333 77 49 27 24 2 345 333 157 151 160 162 168 160 183 190 194 191 192 199 195 195 203 199 203 202 198 197 199 198
294 24 8 302 298 336 349 342 28 67 17 122 27 339 43 72 66 51 39 29 9 343 331 71 71 62 141 168 185 193 198 191 198 201 207 203 206 210 209 206 205 206 206 210
175 156 149 256 335 59 168 343 65 97 139 114 124 206 173 119 105 66 62 57 27 355 347 339 56 67 73 166 185 196 193 194 195 202 213 214 213 217 211 208 209 210 213 215
192 137 174 173 117 296 272 54 8 332 304 119 143 200 243 153 9 14 66 55 53 12 358 341 24 65 43 16 142 165 175 191 195 206 207 213 212 209 209 210 211 215 220 225
53 32 132 166 152 192 234 348 350 305 357 137 311 303 265 299 35 273 345 70 95 178 43 310 21 54 65 32 65 111 135 168 191 205 212 219 215 217 209 218 225 232 234 248
346 355 98 11 111 285 354 314 282 147 223 300 256 254 250 266 258 127 19 77 128 166 153 93 19 39 49 56 65 58 51 39 37 33 266 261 249 239 243 246 253 262 267 287
233 18 321 176 119 247 348 357 345 300 290 242 260 263 297 318 118 126 104 76 84 82 96 86 74 52 47 49 50 43 26 11 356 341 316 298 286 273 268 275 273 277 289 279
307 180 221 178 235 32 328 358 196 265 243 317 311 28 53 111 101 82 77 97 81 102 77 92 105 76 59 60 54 49 23 13 8 0 349 339 320 297 286 274 271 277 283 272
209 166 215 30 4 307 62 205 177 197 81 31 32 25 341 57 115 101 102 100 98 61 70 79 79 78 64 61 60 53 46 44 42 33 22 5 332 313 306 291 286 276 278 272
216 168 213 259 239 279 311 302 255 290 38 77 50 13 326 184 86 110 93 74 88 98 86 71 71 68 58 52 47 40 34 35 43 41 30 23 16 360 335 320 301 295 286 278
180 192 172 236 225 124 176 218 196 289 296 106 118 138 259 113 98 98 94 101 92 80 82 84 84 77 62 54 50 35 29 18 27 31 27 21 19 11 355 341 326 297 320 264